PISAT

Last updated on Sun Jun 21 2026 00:03:39 GMT+0000 (Coordinated Universal Time)

1 41784U 16059B 26171.41355948 .00000622 00000+0 11350-3 0 9993 2 41784 97.8178 171.7277 0028650 192.2677 167.7834 14.68987845520219
UTC large
Height (km)
Speed (km/s)
/
Latitude / Longitude
Inclination (degrees)
Orbital Period (minutes)
Azimuth
Elevation
Range (km)
Doppler Factor

Next 0 passes for location: London (51.5072 / 0.1276)

No passes found over London.
PISAT